Time,TemperatureF,DewpointF,PressureIn,WindDirection,WindDirectionDegrees,WindSpeedMPH,WindSpeedGustMPH,Humidity,HourlyPrecipIn,Conditions,Clouds,dailyrainin,SoftwareType,DateUTC
2013-05-12 00:05:00,61.2,57.3,29.95,SSW,195,2.0,3.0,87,0.00,,,0.00,Wunderground v.1.15,2013-05-12 07:05:00,
2013-05-12 00:10:00,61.1,57.2,29.95,South,185,2.0,3.0,87,0.00,,,0.00,Wunderground v.1.15,2013-05-12 07:10:00,
2013-05-12 00:20:00,60.9,57.0,29.94,SSW,193,1.0,1.0,87,0.00,,,0.00,Wunderground v.1.15,2013-05-12 07:20:00,
2013-05-12 00:30:00,60.8,57.2,29.94,South,186,2.0,2.0,88,0.00,,,0.00,Wunderground v.1.15,2013-05-12 07:30:00,
2013-05-12 00:40:00,60.5,56.9,29.94,South,188,2.0,2.0,88,0.00,,,0.00,Wunderground v.1.15,2013-05-12 07:40:00,
2013-05-12 00:45:00,60.5,56.9,29.94,SSW,203,2.0,2.0,88,0.00,,,0.00,Wunderground v.1.15,2013-05-12 07:45:00,
2013-05-12 00:55:00,60.3,57.0,29.95,SE,137,1.0,3.0,89,0.00,,,0.00,Wunderground v.1.15,2013-05-12 07:55:00,
2013-05-12 01:05:00,60.3,57.0,29.94,SSE,168,1.0,1.0,89,0.00,,,0.00,Wunderground v.1.15,2013-05-12 08:05:00,
2013-05-12 01:15:00,60.1,56.8,29.94,SSE,167,2.0,2.0,89,0.00,,,0.00,Wunderground v.1.15,2013-05-12 08:15:00,
2013-05-12 01:20:00,60.1,56.8,29.94,SSE,167,1.0,2.0,89,0.00,,,0.00,Wunderground v.1.15,2013-05-12 08:20:00,
2013-05-12 01:25:00,60.3,57.0,29.94,SSE,167,0.0,2.0,89,0.00,,,0.00,Wunderground v.1.15,2013-05-12 08:25:00,
2013-05-12 01:30:00,60.1,56.8,29.94,SSE,167,1.0,2.0,89,0.00,,,0.00,Wunderground v.1.15,2013-05-12 08:30:00,
2013-05-12 01:40:00,60.1,57.2,29.94,SSE,167,1.0,1.0,90,0.00,,,0.00,Wunderground v.1.15,2013-05-12 08:40:00,
2013-05-12 01:50:00,60.1,57.2,29.94,SSE,167,1.0,1.0,90,0.00,,,0.00,Wunderground v.1.15,2013-05-12 08:50:00,
2013-05-12 02:00:00,60.0,57.1,29.94,SSE,167,1.0,1.0,90,0.00,,,0.00,Wunderground v.1.15,2013-05-12 09:00:00,
2013-05-12 02:10:00,60.0,57.4,29.93,SSE,167,0.0,0.0,91,0.00,,,0.00,Wunderground v.1.15,2013-05-12 09:10:00,
2013-05-12 02:20:00,60.0,57.4,29.93,SSE,167,0.0,0.0,91,0.00,,,0.00,Wunderground v.1.15,2013-05-12 09:20:00,
2013-05-12 02:30:00,60.0,57.4,29.93,SSE,167,0.0,0.0,91,0.00,,,0.00,Wunderground v.1.15,2013-05-12 09:30:00,
2013-05-12 02:36:00,60.0,57.4,29.93,SSE,167,1.0,1.0,91,0.00,,,0.00,Wunderground v.1.15,2013-05-12 09:36:00,
2013-05-12 02:40:00,60.0,57.4,29.93,SSE,167,0.0,0.0,91,0.00,,,0.00,Wunderground v.1.15,2013-05-12 09:40:00,
2013-05-12 02:50:00,59.8,57.2,29.92,SSE,167,0.0,0.0,91,0.00,,,0.00,Wunderground v.1.15,2013-05-12 09:50:00,
2013-05-12 03:00:00,59.8,57.2,29.92,SSE,167,0.0,0.0,91,0.00,,,0.00,Wunderground v.1.15,2013-05-12 10:00:00,
2013-05-12 03:10:00,59.8,57.2,29.92,NNW,328,2.0,2.0,91,0.00,,,0.00,Wunderground v.1.15,2013-05-12 10:10:00,
2013-05-12 03:20:00,59.7,57.1,29.92,NNW,328,2.0,2.0,91,0.00,,,0.00,Wunderground v.1.15,2013-05-12 10:20:00,
2013-05-12 03:30:00,59.7,57.1,29.92,NNW,328,0.0,0.0,91,0.00,,,0.00,Wunderground v.1.15,2013-05-12 10:30:00,
2013-05-12 03:40:00,59.5,56.9,29.92,NNW,328,0.0,0.0,91,0.00,,,0.00,Wunderground v.1.15,2013-05-12 10:40:00,
2013-05-12 03:50:00,59.7,57.1,29.91,NNW,328,0.0,1.0,91,0.00,,,0.00,Wunderground v.1.15,2013-05-12 10:50:00,
2013-05-12 03:55:00,59.7,57.1,29.91,NNW,328,1.0,1.0,91,0.00,,,0.00,Wunderground v.1.15,2013-05-12 10:55:00,
2013-05-12 04:00:00,59.7,57.1,29.91,NNW,328,1.0,1.0,91,0.00,,,0.00,Wunderground v.1.15,2013-05-12 11:00:00,
2013-05-12 04:05:00,59.7,57.1,29.91,NNW,328,1.0,3.0,91,0.00,,,0.00,Wunderground v.1.15,2013-05-12 11:05:00,
2013-05-12 04:10:00,59.7,57.1,29.91,NNW,328,1.0,3.0,91,0.00,,,0.00,Wunderground v.1.15,2013-05-12 11:10:00,
2013-05-12 04:15:00,59.4,56.8,29.90,NNW,328,1.0,3.0,91,0.00,,,0.00,Wunderground v.1.15,2013-05-12 11:15:00,
2013-05-12 04:25:00,59.4,56.8,29.90,NNW,328,0.0,1.0,91,0.00,,,0.00,Wunderground v.1.15,2013-05-12 11:25:00,
2013-05-12 04:35:00,59.4,57.1,29.91,NNW,328,0.0,0.0,92,0.00,,,0.00,Wunderground v.1.15,2013-05-12 11:35:00,
2013-05-12 04:40:00,59.4,57.1,29.91,NNW,328,0.0,0.0,92,0.00,,,0.00,Wunderground v.1.15,2013-05-12 11:40:00,
2013-05-12 04:50:00,59.5,57.2,29.90,NNW,328,0.0,0.0,92,0.00,,,0.00,Wunderground v.1.15,2013-05-12 11:50:00,
2013-05-12 04:55:00,59.5,57.2,29.90,NNW,328,0.0,0.0,92,0.00,,,0.00,Wunderground v.1.15,2013-05-12 11:55:00,
2013-05-12 05:00:00,59.5,57.2,29.90,NNW,328,0.0,0.0,92,0.00,,,0.00,Wunderground v.1.15,2013-05-12 12:00:00,
2013-05-12 05:05:00,59.4,57.1,29.90,NNW,328,0.0,0.0,92,0.00,,,0.00,Wunderground v.1.15,2013-05-12 12:05:00,
2013-05-12 05:10:00,59.4,57.1,29.90,NNW,328,0.0,0.0,92,0.00,,,0.00,Wunderground v.1.15,2013-05-12 12:10:00,
2013-05-12 05:15:00,59.5,57.2,29.91,NNW,328,0.0,0.0,92,0.00,,,0.00,Wunderground v.1.15,2013-05-12 12:15:00,
2013-05-12 05:20:00,59.5,57.2,29.91,NNW,328,0.0,0.0,92,0.00,,,0.00,Wunderground v.1.15,2013-05-12 12:20:00,
2013-05-12 05:25:00,59.5,57.2,29.91,NNW,328,0.0,0.0,92,0.00,,,0.00,Wunderground v.1.15,2013-05-12 12:25:00,
2013-05-12 05:30:00,59.5,57.2,29.91,NNW,328,0.0,0.0,92,0.00,,,0.00,Wunderground v.1.15,2013-05-12 12:30:00,
2013-05-12 05:40:00,59.7,57.4,29.91,NNW,328,0.0,0.0,92,0.00,,,0.00,Wunderground v.1.15,2013-05-12 12:40:00,
2013-05-12 05:50:00,59.7,57.4,29.92,NNW,328,0.0,0.0,92,0.00,,,0.00,Wunderground v.1.15,2013-05-12 12:50:00,
2013-05-12 06:00:00,59.7,57.4,29.92,NNW,328,0.0,0.0,92,0.00,,,0.00,Wunderground v.1.15,2013-05-12 13:00:00,
2013-05-12 06:05:00,59.7,57.4,29.92,NNW,328,0.0,0.0,92,0.00,,,0.00,Wunderground v.1.15,2013-05-12 13:05:00,
2013-05-12 06:11:00,59.7,57.4,29.92,NNW,328,0.0,0.0,92,0.00,,,0.00,Wunderground v.1.15,2013-05-12 13:11:00,
2013-05-12 06:15:00,59.7,57.4,29.93,NNW,328,0.0,0.0,92,0.00,,,0.00,Wunderground v.1.15,2013-05-12 13:15:00,
2013-05-12 06:25:00,59.7,57.4,29.93,NNW,328,0.0,1.0,92,0.00,,,0.00,Wunderground v.1.15,2013-05-12 13:25:00,
2013-05-12 06:36:00,59.7,57.4,29.93,NNW,328,0.0,0.0,92,0.00,,,0.00,Wunderground v.1.15,2013-05-12 13:36:00,
2013-05-12 06:50:00,59.8,57.5,29.93,NNW,328,0.0,0.0,92,0.00,,,0.00,Wunderground v.1.15,2013-05-12 13:50:00,
2013-05-12 07:00:00,59.7,57.4,29.93,NNW,328,0.0,2.0,92,0.00,,,0.00,Wunderground v.1.15,2013-05-12 14:00:00,
2013-05-12 07:10:00,59.8,57.5,29.93,NNW,328,0.0,0.0,92,0.00,,,0.00,Wunderground v.1.15,2013-05-12 14:10:00,
2013-05-12 07:20:00,60.1,57.8,29.93,NNW,328,0.0,0.0,92,0.00,,,0.00,Wunderground v.1.15,2013-05-12 14:20:00,
2013-05-12 07:25:00,60.3,58.0,29.93,NNW,328,0.0,0.0,92,0.00,,,0.00,Wunderground v.1.15,2013-05-12 14:25:00,
2013-05-12 07:35:00,60.8,58.5,29.93,NNW,328,0.0,0.0,92,0.00,,,0.00,Wunderground v.1.15,2013-05-12 14:35:00,
2013-05-12 07:45:00,61.6,59.3,29.93,ENE,75,0.0,1.0,92,0.00,,,0.00,Wunderground v.1.15,2013-05-12 14:45:00,
2013-05-12 07:50:00,61.9,59.5,29.93,ENE,75,0.0,1.0,92,0.00,,,0.00,Wunderground v.1.15,2013-05-12 14:50:00,
2013-05-12 07:56:00,62.5,59.8,29.93,ENE,75,0.0,0.0,91,0.00,,,0.00,Wunderground v.1.15,2013-05-12 14:56:00,
2013-05-12 08:00:00,62.7,60.0,29.93,ENE,75,0.0,1.0,91,0.00,,,0.00,Wunderground v.1.15,2013-05-12 15:00:00,
2013-05-12 08:10:00,63.3,60.0,29.93,ENE,58,1.0,1.0,89,0.00,,,0.00,Wunderground v.1.15,2013-05-12 15:10:00,
2013-05-12 08:15:00,63.7,60.1,29.93,ENE,58,1.0,2.0,88,0.00,,,0.00,Wunderground v.1.15,2013-05-12 15:15:00,
2013-05-12 08:25:00,64.6,60.3,29.93,ENE,58,0.0,0.0,86,0.00,,,0.00,Wunderground v.1.15,2013-05-12 15:25:00,
2013-05-12 08:35:00,65.4,60.1,29.93,ENE,58,1.0,1.0,83,0.00,,,0.00,Wunderground v.1.15,2013-05-12 15:35:00,
2013-05-12 08:45:00,65.9,59.6,29.93,NE,54,0.0,0.0,80,0.00,,,0.00,Wunderground v.1.15,2013-05-12 15:45:00,
2013-05-12 08:50:00,66.3,59.6,29.93,West,263,0.0,1.0,79,0.00,,,0.00,Wunderground v.1.15,2013-05-12 15:50:00,
2013-05-12 08:55:00,66.8,59.7,29.93,West,263,1.0,1.0,78,0.00,,,0.00,Wunderground v.1.15,2013-05-12 15:55:00,
2013-05-12 09:00:00,67.1,59.6,29.93,West,263,1.0,1.0,77,0.00,,,0.00,Wunderground v.1.15,2013-05-12 16:00:00,
2013-05-12 09:10:00,68.1,59.9,29.93,West,261,1.0,2.0,75,0.00,,,0.00,Wunderground v.1.15,2013-05-12 16:10:00,
2013-05-12 09:20:00,69.3,60.3,29.92,SSW,203,1.0,1.0,73,0.00,,,0.00,Wunderground v.1.15,2013-05-12 16:20:00,
2013-05-12 09:30:00,70.8,60.1,29.92,SSW,206,1.0,1.0,69,0.00,,,0.00,Wunderground v.1.15,2013-05-12 16:30:00,
2013-05-12 09:40:00,72.2,59.8,29.92,SSE,155,1.0,2.0,65,0.00,,,0.00,Wunderground v.1.15,2013-05-12 16:40:00,
2013-05-12 09:50:00,73.1,60.6,29.92,SW,217,3.0,5.0,65,0.00,,,0.00,Wunderground v.1.15,2013-05-12 16:50:00,
2013-05-12 09:55:00,72.7,61.1,29.92,South,175,3.0,5.0,67,0.00,,,0.00,Wunderground v.1.15,2013-05-12 16:55:00,
2013-05-12 10:05:00,73.6,61.5,29.92,SW,230,2.0,7.0,66,0.00,,,0.00,Wunderground v.1.15,2013-05-12 17:05:00,
2013-05-12 10:15:00,71.8,61.1,29.92,SSW,202,5.0,5.0,69,0.00,,,0.00,Wunderground v.1.15,2013-05-12 17:15:00,
2013-05-12 10:20:00,71.5,61.2,29.92,SSW,212,4.0,5.0,70,0.00,,,0.00,Wunderground v.1.15,2013-05-12 17:20:00,
2013-05-12 10:25:00,71.3,60.6,29.92,SW,226,4.0,5.0,69,0.00,,,0.00,Wunderground v.1.15,2013-05-12 17:25:00,
2013-05-12 10:30:00,71.0,60.7,29.92,SW,236,4.0,5.0,70,0.00,,,0.00,Wunderground v.1.15,2013-05-12 17:30:00,
2013-05-12 10:40:00,70.8,60.5,29.92,SW,222,5.0,7.0,70,0.00,,,0.00,Wunderground v.1.15,2013-05-12 17:40:00,
2013-05-12 10:50:00,70.6,60.7,29.92,SW,215,5.0,5.0,71,0.00,,,0.00,Wunderground v.1.15,2013-05-12 17:50:00,
2013-05-12 11:00:00,71.3,61.0,29.92,SSE,148,3.0,3.0,70,0.00,,,0.00,Wunderground v.1.15,2013-05-12 18:00:00,
2013-05-12 11:05:00,72.0,61.3,29.92,SSW,213,3.0,3.0,69,0.00,,,0.00,Wunderground v.1.15,2013-05-12 18:05:00,
2013-05-12 11:15:00,73.4,61.3,29.92,South,184,3.0,3.0,66,0.00,,,0.00,Wunderground v.1.15,2013-05-12 18:15:00,
2013-05-12 11:25:00,73.8,61.3,29.92,SW,217,4.0,4.0,65,0.00,,,0.00,Wunderground v.1.15,2013-05-12 18:25:00,
2013-05-12 11:30:00,73.2,60.3,29.92,SW,233,4.0,5.0,64,0.00,,,0.00,Wunderground v.1.15,2013-05-12 18:30:00,
2013-05-12 11:35:00,72.9,60.9,29.92,WSW,240,5.0,6.0,66,0.00,,,0.00,Wunderground v.1.15,2013-05-12 18:35:00,
2013-05-12 11:40:00,73.1,61.1,29.92,SSW,202,4.0,6.0,66,0.00,,,0.00,Wunderground v.1.15,2013-05-12 18:40:00,
2013-05-12 11:45:00,73.4,60.9,29.91,SW,219,3.0,3.0,65,0.00,,,0.00,Wunderground v.1.15,2013-05-12 18:45:00,
2013-05-12 11:50:00,73.9,61.4,29.91,SSW,202,3.0,3.0,65,0.00,,,0.00,Wunderground v.1.15,2013-05-12 18:50:00,
2013-05-12 12:00:00,74.6,61.6,29.91,SSW,202,3.0,3.0,64,0.00,,,0.00,Wunderground v.1.15,2013-05-12 19:00:00,
2013-05-12 12:05:00,74.8,61.4,29.91,South,178,3.0,3.0,63,0.00,,,0.00,Wunderground v.1.15,2013-05-12 19:05:00,
2013-05-12 12:15:00,75.9,61.5,29.90,South,186,3.0,3.0,61,0.00,,,0.00,Wunderground v.1.15,2013-05-12 19:15:00,
2013-05-12 12:25:00,75.9,61.5,29.90,SSE,150,3.0,4.0,61,0.00,,,0.00,Wunderground v.1.15,2013-05-12 19:25:00,
2013-05-12 12:30:00,76.6,62.1,29.90,SE,145,3.0,6.0,61,0.00,,,0.00,Wunderground v.1.15,2013-05-12 19:30:00,
2013-05-12 12:40:00,77.1,61.2,29.90,South,181,5.0,7.0,58,0.00,,,0.00,Wunderground v.1.15,2013-05-12 19:40:00,
2013-05-12 12:45:00,77.5,61.1,29.90,SSW,195,5.0,7.0,57,0.00,,,0.00,Wunderground v.1.15,2013-05-12 19:45:00,
2013-05-12 12:55:00,77.5,61.1,29.90,South,171,5.0,5.0,57,0.00,,,0.00,Wunderground v.1.15,2013-05-12 19:55:00,
2013-05-12 13:00:00,77.7,61.3,29.90,SE,136,5.0,7.0,57,0.00,,,0.00,Wunderground v.1.15,2013-05-12 20:00:00,
2013-05-12 13:10:00,76.4,61.0,29.89,SSE,148,6.0,7.0,59,0.00,,,0.00,Wunderground v.1.15,2013-05-12 20:10:00,
2013-05-12 13:15:00,76.1,60.7,29.89,South,169,6.0,7.0,59,0.00,,,0.00,Wunderground v.1.15,2013-05-12 20:15:00,
2013-05-12 13:20:00,76.6,61.2,29.89,South,171,5.0,5.0,59,0.00,,,0.00,Wunderground v.1.15,2013-05-12 20:20:00,
2013-05-12 13:25:00,76.4,60.5,29.89,SSE,150,5.0,5.0,58,0.00,,,0.00,Wunderground v.1.15,2013-05-12 20:25:00,
2013-05-12 13:35:00,76.8,60.9,29.89,SSW,198,5.0,5.0,58,0.00,,,0.00,Wunderground v.1.15,2013-05-12 20:35:00,
2013-05-12 13:40:00,77.0,60.6,29.89,SE,141,4.0,6.0,57,0.00,,,0.00,Wunderground v.1.15,2013-05-12 20:40:00,
2013-05-12 13:50:00,76.8,61.4,29.88,South,178,6.0,7.0,59,0.00,,,0.00,Wunderground v.1.15,2013-05-12 20:50:00,
2013-05-12 14:00:00,76.1,60.2,29.87,South,184,6.0,6.0,58,0.00,,,0.00,Wunderground v.1.15,2013-05-12 21:00:00,
2013-05-12 14:15:00,76.4,60.0,29.87,SSE,148,5.0,5.0,57,0.00,,,0.00,Wunderground v.1.15,2013-05-12 21:15:00,
2013-05-12 14:25:00,77.3,60.9,29.87,South,171,4.0,6.0,57,0.00,,,0.00,Wunderground v.1.15,2013-05-12 21:25:00,
2013-05-12 14:30:00,77.5,60.6,29.87,South,182,4.0,6.0,56,0.00,,,0.00,Wunderground v.1.15,2013-05-12 21:30:00,
2013-05-12 14:40:00,77.0,60.6,29.86,SSE,157,5.0,7.0,57,0.00,,,0.00,Wunderground v.1.15,2013-05-12 21:40:00,
2013-05-12 14:55:00,75.7,60.4,29.86,SSE,147,6.0,6.0,59,0.00,,,0.00,Wunderground v.1.15,2013-05-12 21:55:00,
2013-05-12 15:05:00,76.1,60.7,29.85,SSE,160,7.0,10.0,59,0.00,,,0.00,Wunderground v.1.15,2013-05-12 22:05:00,
2013-05-12 15:20:00,78.8,60.7,29.84,SE,130,2.0,3.0,54,0.00,,,0.00,Wunderground v.1.15,2013-05-12 22:20:00,
2013-05-12 15:25:00,79.2,60.1,29.84,SE,141,3.0,3.0,52,0.00,,,0.00,Wunderground v.1.15,2013-05-12 22:25:00,
2013-05-12 15:35:00,80.1,60.3,29.83,SE,141,4.0,4.0,51,0.00,,,0.00,Wunderground v.1.15,2013-05-12 22:35:00,
2013-05-12 15:40:00,80.7,60.3,29.83,SE,126,4.0,4.0,50,0.00,,,0.00,Wunderground v.1.15,2013-05-12 22:40:00,
2013-05-12 15:50:00,82.6,59.1,29.83,SSW,193,3.0,3.0,45,0.00,,,0.00,Wunderground v.1.15,2013-05-12 22:50:00,
2013-05-12 15:55:00,83.2,58.4,29.83,SSE,155,3.0,3.0,43,0.00,,,0.00,Wunderground v.1.15,2013-05-12 22:55:00,
2013-05-12 16:05:00,83.8,59.6,29.82,SSE,165,3.0,4.0,44,0.00,,,0.00,Wunderground v.1.15,2013-05-12 23:05:00,
2013-05-12 16:10:00,84.2,59.3,29.82,SSE,155,3.0,4.0,43,0.00,,,0.00,Wunderground v.1.15,2013-05-12 23:10:00,
2013-05-12 16:20:00,84.4,60.1,29.81,SSE,160,3.0,3.0,44,0.00,,,0.00,Wunderground v.1.15,2013-05-12 23:20:00,
2013-05-12 16:25:00,84.2,60.6,29.81,SSE,167,4.0,4.0,45,0.00,,,0.00,Wunderground v.1.15,2013-05-12 23:25:00,
2013-05-12 16:35:00,84.2,59.9,29.81,WNW,285,3.0,3.0,44,0.00,,,0.00,Wunderground v.1.15,2013-05-12 23:35:00,
2013-05-12 16:40:00,84.8,56.4,29.81,NNW,336,3.0,3.0,38,0.00,,,0.00,Wunderground v.1.15,2013-05-12 23:40:00,
2013-05-12 16:50:00,85.7,56.4,29.81,NW,316,6.0,7.0,37,0.00,,,0.00,Wunderground v.1.15,2013-05-12 23:50:00,
2013-05-12 16:55:00,85.2,56.0,29.81,NNW,339,6.0,7.0,37,0.00,,,0.00,Wunderground v.1.15,2013-05-12 23:55:00,
2013-05-12 17:05:00,84.4,56.0,29.80,NW,325,6.0,6.0,38,0.00,,,0.00,Wunderground v.1.15,2013-05-13 00:05:00,
2013-05-12 17:10:00,84.4,54.5,29.80,West,265,6.0,8.0,36,0.00,,,0.00,Wunderground v.1.15,2013-05-13 00:10:00,
2013-05-12 17:20:00,84.0,54.2,29.80,NW,320,7.0,7.0,36,0.00,,,0.00,Wunderground v.1.15,2013-05-13 00:20:00,
2013-05-12 17:25:00,83.8,53.2,29.80,NW,308,7.0,7.0,35,0.00,,,0.00,Wunderground v.1.15,2013-05-13 00:25:00,
2013-05-12 17:35:00,83.8,53.2,29.79,West,278,5.0,5.0,35,0.00,,,0.00,Wunderground v.1.15,2013-05-13 00:35:00,
2013-05-12 17:46:00,84.6,53.9,29.78,NW,308,5.0,5.0,35,0.00,,,0.00,Wunderground v.1.15,2013-05-13 00:46:00,
2013-05-12 17:50:00,84.2,53.6,29.78,WNW,299,6.0,7.0,35,0.00,,,0.00,Wunderground v.1.15,2013-05-13 00:50:00,
2013-05-12 18:01:00,83.4,53.6,29.79,NW,315,7.0,7.0,36,0.00,,,0.00,Wunderground v.1.15,2013-05-13 01:01:00,
2013-05-12 18:05:00,82.6,53.7,29.79,West,278,7.0,7.0,37,0.00,,,0.00,Wunderground v.1.15,2013-05-13 01:05:00,
2013-05-12 18:15:00,81.5,54.2,29.78,NW,305,7.0,7.0,39,0.00,,,0.00,Wunderground v.1.15,2013-05-13 01:15:00,
2013-05-12 18:20:00,81.3,54.7,29.78,NW,312,7.0,7.0,40,0.00,,,0.00,Wunderground v.1.15,2013-05-13 01:20:00,
2013-05-12 18:30:00,80.5,54.0,29.78,NW,305,5.0,5.0,40,0.00,,,0.00,Wunderground v.1.15,2013-05-13 01:30:00,
2013-05-12 18:35:00,79.9,54.8,29.78,WNW,285,5.0,6.0,42,0.00,,,0.00,Wunderground v.1.15,2013-05-13 01:35:00,
2013-05-12 18:45:00,79.4,55.0,29.78,NW,315,4.0,4.0,43,0.00,,,0.00,Wunderground v.1.15,2013-05-13 01:45:00,
2013-05-12 18:50:00,79.0,54.6,29.78,West,271,4.0,5.0,43,0.00,,,0.00,Wunderground v.1.15,2013-05-13 01:50:00,
2013-05-12 19:00:00,78.6,55.5,29.78,NW,312,3.0,5.0,45,0.00,,,0.00,Wunderground v.1.15,2013-05-13 02:00:00,
2013-05-12 19:10:00,78.3,55.2,29.78,NW,313,4.0,4.0,45,0.00,,,0.00,Wunderground v.1.15,2013-05-13 02:10:00,
2013-05-12 19:15:00,77.7,55.9,29.78,NW,318,4.0,4.0,47,0.00,,,0.00,Wunderground v.1.15,2013-05-13 02:15:00,
2013-05-12 19:25:00,76.4,55.3,29.78,NNW,328,4.0,4.0,48,0.00,,,0.00,Wunderground v.1.15,2013-05-13 02:25:00,
2013-05-12 19:30:00,76.1,55.5,29.78,NW,326,3.0,4.0,49,0.00,,,0.00,Wunderground v.1.15,2013-05-13 02:30:00,
2013-05-12 19:40:00,75.2,54.7,29.78,NW,319,2.0,2.0,49,0.00,,,0.00,Wunderground v.1.15,2013-05-13 02:40:00,
2013-05-12 19:55:00,74.5,55.2,29.79,NNW,343,0.0,1.0,51,0.00,,,0.00,Wunderground v.1.15,2013-05-13 02:55:00,
2013-05-12 20:05:00,73.9,55.2,29.79,NNW,343,0.0,0.0,52,0.00,,,0.00,Wunderground v.1.15,2013-05-13 03:05:00,
2013-05-12 20:10:00,73.8,55.1,29.79,NNW,343,0.0,0.0,52,0.00,,,0.00,Wunderground v.1.15,2013-05-13 03:10:00,
2013-05-12 20:20:00,73.4,54.7,29.79,WSW,250,1.0,1.0,52,0.00,,,0.00,Wunderground v.1.15,2013-05-13 03:20:00,
2013-05-12 20:25:00,73.2,55.0,29.79,WSW,250,0.0,1.0,53,0.00,,,0.00,Wunderground v.1.15,2013-05-13 03:25:00,
2013-05-12 20:31:00,73.1,55.5,29.79,WSW,250,0.0,0.0,54,0.00,,,0.00,Wunderground v.1.15,2013-05-13 03:31:00,
2013-05-12 20:35:00,72.9,55.3,29.79,WSW,250,0.0,0.0,54,0.00,,,0.00,Wunderground v.1.15,2013-05-13 03:35:00,
2013-05-12 20:45:00,72.4,55.8,29.79,WSW,250,0.0,0.0,56,0.00,,,0.00,Wunderground v.1.15,2013-05-13 03:45:00,
2013-05-12 20:50:00,72.0,55.9,29.79,WSW,250,0.0,0.0,57,0.00,,,0.00,Wunderground v.1.15,2013-05-13 03:50:00,
2013-05-12 21:00:00,71.7,58.4,29.80,SE,144,1.0,5.0,63,0.00,,,0.00,Wunderground v.1.15,2013-05-13 04:00:00,
2013-05-12 21:05:00,71.3,58.5,29.80,SSE,147,2.0,5.0,64,0.00,,,0.00,Wunderground v.1.15,2013-05-13 04:05:00,
2013-05-12 21:15:00,70.5,58.6,29.80,South,182,2.0,2.0,66,0.00,,,0.00,Wunderground v.1.15,2013-05-13 04:15:00,
2013-05-12 21:20:00,70.1,58.6,29.80,South,185,2.0,2.0,67,0.00,,,0.00,Wunderground v.1.15,2013-05-13 04:20:00,
2013-05-12 21:30:00,69.3,58.3,29.81,SW,216,2.0,2.0,68,0.00,,,0.00,Wunderground v.1.15,2013-05-13 04:30:00,
2013-05-12 21:35:00,68.9,58.7,29.81,SW,216,2.0,2.0,70,0.00,,,0.00,Wunderground v.1.15,2013-05-13 04:35:00,
2013-05-12 21:41:00,68.8,58.6,29.81,SW,216,2.0,2.0,70,0.00,,,0.00,Wunderground v.1.15,2013-05-13 04:41:00,
2013-05-12 21:45:00,68.6,58.4,29.81,SW,216,1.0,2.0,70,0.00,,,0.00,Wunderground v.1.15,2013-05-13 04:45:00,
2013-05-12 21:55:00,68.4,58.6,29.81,SW,216,0.0,0.0,71,0.00,,,0.00,Wunderground v.1.15,2013-05-13 04:55:00,
2013-05-12 22:00:00,68.3,58.9,29.81,SW,216,0.0,0.0,72,0.00,,,0.00,Wunderground v.1.15,2013-05-13 05:00:00,
2013-05-12 22:10:00,67.9,58.9,29.81,SW,216,1.0,1.0,73,0.00,,,0.00,Wunderground v.1.15,2013-05-13 05:10:00,
2013-05-12 22:15:00,67.8,59.2,29.82,SSE,155,2.0,3.0,74,0.00,,,0.00,Wunderground v.1.15,2013-05-13 05:15:00,
2013-05-12 22:25:00,67.4,59.6,29.82,SSE,162,2.0,2.0,76,0.00,,,0.00,Wunderground v.1.15,2013-05-13 05:25:00,
2013-05-12 22:30:00,67.1,59.6,29.82,SSE,162,1.0,2.0,77,0.00,,,0.00,Wunderground v.1.15,2013-05-13 05:30:00,
2013-05-12 22:36:00,66.9,59.5,29.82,SSE,162,2.0,2.0,77,0.00,,,0.00,Wunderground v.1.15,2013-05-13 05:36:00,
2013-05-12 22:40:00,66.8,59.7,29.82,SSE,162,1.0,2.0,78,0.00,,,0.00,Wunderground v.1.15,2013-05-13 05:40:00,
2013-05-12 22:55:00,66.4,59.7,29.82,SSE,162,1.0,1.0,79,0.00,,,0.00,Wunderground v.1.15,2013-05-13 05:55:00,
2013-05-12 23:05:00,66.1,59.7,29.82,SSE,162,1.0,1.0,80,0.00,,,0.00,Wunderground v.1.15,2013-05-13 06:05:00,
2013-05-12 23:10:00,66.1,59.7,29.82,SSE,162,1.0,1.0,80,0.00,,,0.00,Wunderground v.1.15,2013-05-13 06:10:00,
2013-05-12 23:20:00,65.9,59.9,29.83,SSE,162,0.0,0.0,81,0.00,,,0.00,Wunderground v.1.15,2013-05-13 06:20:00,
2013-05-12 23:25:00,65.8,59.8,29.83,SSE,162,0.0,0.0,81,0.00,,,0.00,Wunderground v.1.15,2013-05-13 06:25:00,
2013-05-12 23:30:00,65.8,59.8,29.82,SSE,162,1.0,1.0,81,0.00,,,0.00,Wunderground v.1.15,2013-05-13 06:30:00,
2013-05-12 23:40:00,65.6,60.0,29.82,SSE,162,0.0,0.0,82,0.00,,,0.00,Wunderground v.1.15,2013-05-13 06:40:00,
2013-05-12 23:45:00,65.6,60.0,29.82,SSE,162,0.0,0.0,82,0.00,,,0.00,Wunderground v.1.15,2013-05-13 06:45:00,
2013-05-12 23:56:00,65.3,59.7,29.82,SSE,162,0.0,0.0,82,0.00,,,0.00,Wunderground v.1.15,2013-05-13 06:56:00,